Stündliche Wetter Holovkivka

Heute, 20 Juni, Sonntag

Zeit Temperatur Niederschläge Wind Luftdruck Luftfeuchtigkeit
00:00 +21°C° 0 mm 6 m/S 752 mmHg 82%
01:00 +21°C° 0 mm 6 m/S 752 mmHg 83%
02:00 +20°C° 0 mm 6 m/S 752 mmHg 83%
03:00 +20°C° 0 mm 5 m/S 751 mmHg 82%
04:00 +20°C° 0 mm 5 m/S 751 mmHg 81%
05:00 +19°C° 0 mm 5 m/S 751 mmHg 80%
06:00 +20°C° 0 mm 6 m/S 751 mmHg 76%
07:00 +21°C° 0 mm 7 m/S 751 mmHg 71%
08:00 +23°C° 0 mm 7 m/S 751 mmHg 67%
09:00 +23°C° 0 mm 7 m/S 751 mmHg 66%
10:00 +23°C° 0 mm 7 m/S 751 mmHg 64%
11:00 +24°C° 0 mm 6 m/S 751 mmHg 63%
12:00 +26°C° 0 mm 7 m/S 751 mmHg 60%
13:00 +27°C° 0 mm 7 m/S 751 mmHg 57%
14:00 +28°C° 0 mm 7 m/S 751 mmHg 53%
15:00 +28°C° 0 mm 7 m/S 751 mmHg 57%
16:00 +27°C° 0 mm 7 m/S 751 mmHg 60%
17:00 +27°C° 0 mm 6 m/S 750 mmHg 63%
18:00 +25°C° 0 mm 5 m/S 750 mmHg 69%
19:00 +23°C° 0 mm 4 m/S 750 mmHg 75%
20:00 +22°C° 0 mm 4 m/S 751 mmHg 82%
21:00 +21°C° 0 mm 3 m/S 750 mmHg 85%
22:00 +20°C° 0 mm 3 m/S 750 mmHg 87%
23:00 +20°C° 0 mm 3 m/S 750 mmHg 90%

Morgen, 21 Juni, Montag

Zeit Temperatur Niederschläge Wind Luftdruck Luftfeuchtigkeit
00:00 +19°C° 0 mm 3 m/S 750 mmHg 91%
01:00 +19°C° 0 mm 2 m/S 750 mmHg 91%
02:00 +19°C° 0 mm 2 m/S 750 mmHg 92%
03:00 +19°C° 0 mm 2 m/S 750 mmHg 91%
04:00 +19°C° 0 mm 2 m/S 750 mmHg 90%
05:00 +19°C° 0 mm 2 m/S 750 mmHg 90%
06:00 +21°C° 0 mm 2 m/S 750 mmHg 83%
07:00 +24°C° 0 mm 3 m/S 750 mmHg 76%
08:00 +25°C° 0 mm 3 m/S 750 mmHg 70%
09:00 +27°C° 0 mm 3 m/S 750 mmHg 66%
10:00 +28°C° 0 mm 2 m/S 750 mmHg 63%
11:00 +29°C° 0 mm 2 m/S 750 mmHg 59%
12:00 +30°C° 0 mm 2 m/S 750 mmHg 57%
13:00 +30°C° 0 mm 3 m/S 750 mmHg 56%
14:00 +31°C° 0 mm 3 m/S 750 mmHg 54%
15:00 +31°C° 0 mm 3 m/S 750 mmHg 56%
16:00 +31°C° 0 mm 3 m/S 750 mmHg 58%
17:00 +31°C° 0 mm 3 m/S 750 mmHg 60%
18:00 +29°C° 0 mm 3 m/S 750 mmHg 67%
19:00 +27°C° 0 mm 3 m/S 750 mmHg 73%
20:00 +25°C° 0 mm 3 m/S 750 mmHg 80%
21:00 +25°C° 0 mm 3 m/S 750 mmHg 79%
22:00 +24°C° 0 mm 3 m/S 750 mmHg 78%
23:00 +24°C° 0 mm 3 m/S 750 mmHg 77%

übermorgen, 22 Juni, Dienstag

Zeit Temperatur Niederschläge Wind Luftdruck Luftfeuchtigkeit
00:00 +22°C° 0 mm 3 m/S 750 mmHg 76%
01:00 +22°C° 0 mm 3 m/S 750 mmHg 76%
02:00 +23°C° 0 mm 2 m/S 749 mmHg 75%
03:00 +21°C° 0.2 mm 3 m/S 749 mmHg 78%
04:00 +21°C° 0.2 mm 3 m/S 749 mmHg 81%
05:00 +20°C° 0.2 mm 3 m/S 749 mmHg 84%
06:00 +22°C° 0.4 mm 4 m/S 749 mmHg 80%
07:00 +23°C° 0.4 mm 4 m/S 750 mmHg 75%
08:00 +25°C° 0.4 mm 5 m/S 750 mmHg 71%
09:00 +26°C° 0.2 mm 5 m/S 750 mmHg 67%
10:00 +28°C° 0.2 mm 5 m/S 750 mmHg 63%
11:00 +29°C° 0.2 mm 6 m/S 750 mmHg 60%
12:00 +30°C° 0.1 mm 5 m/S 750 mmHg 57%
13:00 +32°C° 0.1 mm 5 m/S 750 mmHg 54%
14:00 +32°C° 0.1 mm 5 m/S 750 mmHg 51%
15:00 +32°C° 0 mm 5 m/S 750 mmHg 52%
16:00 +30°C° 0 mm 5 m/S 750 mmHg 54%
17:00 +30°C° 0 mm 4 m/S 750 mmHg 55%
18:00 +28°C° 0 mm 4 m/S 750 mmHg 60%
19:00 +26°C° 0 mm 3 m/S 750 mmHg 66%
20:00 +25°C° 0 mm 3 m/S 750 mmHg 71%
21:00 +24°C° 0 mm 3 m/S 750 mmHg 73%
22:00 +24°C° 0 mm 3 m/S 750 mmHg 74%
23:00 +22°C° 0 mm 3 m/S 750 mmHg 76%

23 Juni, Mittwoch

Zeit Temperatur Niederschläge Wind Luftdruck Luftfeuchtigkeit
00:00 +23°C° 0 mm 2 m/S 750 mmHg 76%
01:00 +23°C° 0 mm 1 m/S 750 mmHg 76%
02:00 +22°C° 0 mm 1 m/S 750 mmHg 77%
03:00 +22°C° 0 mm 1 m/S 750 mmHg 78%
04:00 +21°C° 0 mm 2 m/S 750 mmHg 80%
05:00 +21°C° 0 mm 2 m/S 750 mmHg 82%
06:00 +24°C° 0 mm 2 m/S 750 mmHg 79%
07:00 +25°C° 0 mm 2 m/S 750 mmHg 75%
08:00 +26°C° 0 mm 2 m/S 751 mmHg 72%
09:00 +27°C° 0 mm 2 m/S 751 mmHg 68%
10:00 +28°C° 0 mm 2 m/S 751 mmHg 64%
11:00 +29°C° 0 mm 2 m/S 751 mmHg 60%
12:00 +30°C° 0 mm 2 m/S 751 mmHg 58%
13:00 +31°C° 0 mm 2 m/S 751 mmHg 55%
14:00 +32°C° 0 mm 2 m/S 751 mmHg 52%
15:00 +32°C° 0 mm 2 m/S 751 mmHg 54%
16:00 +32°C° 0 mm 2 m/S 751 mmHg 55%
17:00 +32°C° 0 mm 2 m/S 751 mmHg 56%
18:00 +30°C° 0 mm 2 m/S 751 mmHg 61%
19:00 +29°C° 0 mm 2 m/S 751 mmHg 66%
20:00 +27°C° 0 mm 2 m/S 752 mmHg 71%
21:00 +26°C° 0.1 mm 2 m/S 752 mmHg 74%
22:00 +25°C° 0.1 mm 2 m/S 752 mmHg 76%
23:00 +25°C° 0.1 mm 3 m/S 752 mmHg 78%

24 Juni, Donnerstag

Zeit Temperatur Niederschläge Wind Luftdruck Luftfeuchtigkeit
00:00 +24°C° 0 mm 2 m/S 752 mmHg 78%
01:00 +24°C° 0 mm 2 m/S 752 mmHg 78%
02:00 +24°C° 0 mm 2 m/S 752 mmHg 77%
03:00 +24°C° 0.1 mm 2 m/S 752 mmHg 78%
04:00 +24°C° 0.1 mm 2 m/S 752 mmHg 79%
05:00 +24°C° 0.1 mm 2 m/S 752 mmHg 80%
06:00 +25°C° 0 mm 3 m/S 752 mmHg 75%
07:00 +27°C° 0 mm 4 m/S 752 mmHg 69%
08:00 +28°C° 0 mm 4 m/S 752 mmHg 64%
09:00 +29°C° 0 mm 4 m/S 752 mmHg 58%
10:00 +32°C° 0 mm 4 m/S 752 mmHg 52%
11:00 +33°C° 0 mm 4 m/S 752 mmHg 45%
12:00 +33°C° 0 mm 4 m/S 752 mmHg 45%
13:00 +33°C° 0 mm 4 m/S 752 mmHg 45%
14:00 +33°C° 0 mm 4 m/S 751 mmHg 45%
15:00 +32°C° 0 mm 4 m/S 751 mmHg 48%
16:00 +32°C° 0 mm 4 m/S 751 mmHg 52%
17:00 +30°C° 0 mm 4 m/S 751 mmHg 56%
18:00 +29°C° 0 mm 4 m/S 751 mmHg 64%
19:00 +27°C° 0 mm 4 m/S 751 mmHg 72%
20:00 +25°C° 0 mm 3 m/S 751 mmHg 79%
21:00 +25°C° 0 mm 3 m/S 751 mmHg 82%
22:00 +24°C° 0 mm 2 m/S 751 mmHg 84%
23:00 +24°C° 0 mm 2 m/S 751 mmHg 87%

25 Juni, Freitag

Zeit Temperatur Niederschläge Wind Luftdruck Luftfeuchtigkeit
00:00 +23°C° 0 mm 2 m/S 751 mmHg 88%
01:00 +23°C° 0 mm 2 m/S 751 mmHg 89%
02:00 +21°C° 0 mm 2 m/S 751 mmHg 90%
03:00 +21°C° 0 mm 2 m/S 751 mmHg 89%
04:00 +21°C° 0 mm 2 m/S 751 mmHg 88%
05:00 +21°C° 0 mm 2 m/S 751 mmHg 87%
06:00 +24°C° 0 mm 2 m/S 751 mmHg 79%
07:00 +26°C° 0 mm 2 m/S 751 mmHg 71%
08:00 +28°C° 0 mm 2 m/S 751 mmHg 63%
09:00 +29°C° 0 mm 2 m/S 751 mmHg 58%
10:00 +30°C° 0 mm 1 m/S 751 mmHg 52%
11:00 +31°C° 0 mm 1 m/S 750 mmHg 47%
12:00 +31°C° 0 mm 1 m/S 750 mmHg 45%
13:00 +32°C° 0 mm 2 m/S 750 mmHg 43%
14:00 +32°C° 0 mm 2 m/S 750 mmHg 42%
15:00 +32°C° 0 mm 2 m/S 750 mmHg 44%
16:00 +32°C° 0 mm 2 m/S 750 mmHg 47%
17:00 +31°C° 0 mm 2 m/S 749 mmHg 49%
18:00 +30°C° 0 mm 2 m/S 749 mmHg 54%
19:00 +28°C° 0 mm 2 m/S 749 mmHg 58%
20:00 +26°C° 0 mm 1 m/S 749 mmHg 62%
21:00 +26°C° 0 mm 1 m/S 749 mmHg 62%
22:00 +25°C° 0 mm 1 m/S 749 mmHg 62%
23:00 +25°C° 0 mm 1 m/S 749 mmHg 62%
Mehr zeigen

Wir brauchen deine Erlaubnis

Meteoprog und unser Service Anbieter werden persönliche Daten aufbewahren, so wie Cookies, Geräte Bezeichnung oder ähnliche Technologien von deinem Gerät und Prozess, so wie Persönliche Daten Inhalte und Werbungen, genauso wie social Media und den Verkehr zu analysieren.

  • Aufbewahrung und/oder Zugang zu deiner Geräte Informationen.

    Cookies, Geräte Bezeichnung oder andere Informationen, können aufbewahrt oder Zugang zu deinem Gerät erhalten, für den Grund, der oben angegeben wird.

  • Personalisierte Werbung und Inhalte, Messungen, Einblick in das Publikum und Produkt Entwicklung.

    Werbungen und Inhalte können personalisiert werden, basierend auf ein Profil. Mehr Daten können besser personalisierte Werbungen und Inhalte hinzufügen. Werbung und Inhalte können gezeigt und gemessen werden. Einblicke über das Publikum, welche die Werbung gesehen haben und den Inhalt, können abgeleitet werden. So wie Daten können genutzt werden, um es zu verbessern oder die Benutzer Erfahrung zu verbessern das System und die Software.

Wenn du “Ich stimme zu” klickst, erlaubst du uns, die Cookies zu benutzen die Geräte Bezeichnung, den Web oder ähnliche Technologien zu benutzen. Deine Settings, können in deinem Gerät bei deinem Browser geändert werden.

Für den bestimmten Zweck, berechtigten Interessen beruhen darauf, mehr als auf den Inhalt. Du kannst mehr darüber in unseren Privaten und Cookie Politik lesen.